Time,TemperatureF,DewpointF,PressureIn,WindDirection,WindDirectionDegrees,WindSpeedMPH,WindSpeedGustMPH,Humidity,HourlyPrecipIn,Conditions,Clouds,dailyrainin,SoftwareType,DateUTC
2013-08-11 00:09:00,82.7,76.0,30.16,SSW,206,3.0,10.0,81,0.00,,,0.00,weatherlink.com 1.10,2013-08-11 04:09:00,
2013-08-11 00:25:00,82.7,76.0,30.16,SSW,205,6.0,9.0,81,0.00,,,0.00,weatherlink.com 1.10,2013-08-11 04:25:00,
2013-08-11 00:39:00,82.6,77.0,30.17,SSW,205,3.0,8.0,82,0.00,,,0.00,weatherlink.com 1.10,2013-08-11 04:39:00,
2013-08-11 00:54:00,82.6,76.0,30.17,SSW,205,4.0,9.0,81,0.00,,,0.00,weatherlink.com 1.10,2013-08-11 04:54:00,
2013-08-11 01:10:00,82.7,76.0,30.17,SSW,206,4.0,7.0,81,0.00,,,0.00,weatherlink.com 1.10,2013-08-11 05:10:00,
2013-08-11 01:25:00,82.8,76.0,30.17,SSW,205,2.0,10.0,81,0.00,,,0.00,weatherlink.com 1.10,2013-08-11 05:25:00,
2013-08-11 01:39:00,82.7,77.0,30.16,SSW,206,4.0,9.0,82,0.00,,,0.00,weatherlink.com 1.10,2013-08-11 05:39:00,
2013-08-11 02:10:00,82.5,77.0,30.16,SSW,206,3.0,6.0,83,0.00,,,0.00,weatherlink.com 1.10,2013-08-11 06:10:00,
2013-08-11 02:24:00,82.5,77.0,30.16,SSW,205,3.0,6.0,82,0.00,,,0.00,weatherlink.com 1.10,2013-08-11 06:24:00,
2013-08-11 02:40:00,82.6,76.0,30.16,SSW,205,4.0,7.0,80,0.00,,,0.00,weatherlink.com 1.10,2013-08-11 06:40:00,
2013-08-11 02:56:00,82.4,76.0,30.16,SSW,205,4.0,5.0,80,0.00,,,0.00,weatherlink.com 1.10,2013-08-11 06:56:00,
2013-08-11 03:10:00,82.4,75.0,30.16,SSW,205,4.0,7.0,79,0.00,,,0.00,weatherlink.com 1.10,2013-08-11 07:10:00,
2013-08-11 03:25:00,82.4,76.0,30.15,SSW,205,4.0,7.0,81,0.00,,,0.00,weatherlink.com 1.10,2013-08-11 07:25:00,
2013-08-11 03:41:00,82.3,76.0,30.15,SSW,206,4.0,8.0,81,0.00,,,0.00,weatherlink.com 1.10,2013-08-11 07:41:00,
2013-08-11 03:55:00,82.3,76.0,30.15,SSW,205,5.0,9.0,81,0.00,,,0.00,weatherlink.com 1.10,2013-08-11 07:55:00,
2013-08-11 04:11:00,82.2,76.0,30.15,SSW,206,3.0,9.0,80,0.00,,,0.00,weatherlink.com 1.10,2013-08-11 08:11:00,
2013-08-11 04:27:00,82.2,76.0,30.15,SSW,205,3.0,6.0,81,0.00,,,0.00,weatherlink.com 1.10,2013-08-11 08:27:00,
2013-08-11 04:41:00,82.0,76.0,30.15,SSW,205,3.0,4.0,82,0.00,,,0.00,weatherlink.com 1.10,2013-08-11 08:41:00,
2013-08-11 04:56:00,82.1,77.0,30.15,SSW,205,3.0,5.0,83,0.00,,,0.00,weatherlink.com 1.10,2013-08-11 08:56:00,
2013-08-11 05:12:00,82.1,76.0,30.15,SSW,206,3.0,6.0,82,0.00,,,0.00,weatherlink.com 1.10,2013-08-11 09:12:00,
2013-08-11 05:41:00,82.2,76.0,30.16,SSW,205,4.0,7.0,81,0.00,,,0.00,weatherlink.com 1.10,2013-08-11 09:41:00,
2013-08-11 06:27:00,81.7,76.0,30.16,SSW,206,5.0,7.0,83,0.00,,,0.00,weatherlink.com 1.10,2013-08-11 10:27:00,
2013-08-11 06:42:00,81.7,77.0,30.17,SSW,206,3.0,5.0,84,0.00,,,0.00,weatherlink.com 1.10,2013-08-11 10:42:00,
2013-08-11 06:57:00,81.8,77.0,30.17,SSW,205,5.0,6.0,84,0.00,,,0.00,weatherlink.com 1.10,2013-08-11 10:57:00,
2013-08-11 07:13:00,82.1,77.0,30.17,SSW,205,4.0,8.0,85,0.00,,,0.00,weatherlink.com 1.10,2013-08-11 11:13:00,
2013-08-11 07:27:00,82.3,77.0,30.18,SSW,205,6.0,8.0,84,0.00,,,0.00,weatherlink.com 1.10,2013-08-11 11:27:00,
2013-08-11 07:43:00,82.4,77.0,30.18,SSW,206,5.0,7.0,84,0.00,,,0.00,weatherlink.com 1.10,2013-08-11 11:43:00,
2013-08-11 08:12:00,83.4,77.0,30.18,SSW,206,5.0,8.0,82,0.00,,,0.00,weatherlink.com 1.10,2013-08-11 12:12:00,
2013-08-11 08:28:00,83.5,78.0,30.18,SSW,205,4.0,9.0,82,0.00,,,0.00,weatherlink.com 1.10,2013-08-11 12:28:00,
2013-08-11 08:57:00,84.2,78.0,30.19,SSW,206,7.0,9.0,82,0.00,,,0.00,weatherlink.com 1.10,2013-08-11 12:57:00,
2013-08-11 09:13:00,84.3,78.0,30.19,SSW,205,5.0,12.0,80,0.00,,,0.00,weatherlink.com 1.10,2013-08-11 13:13:00,
2013-08-11 09:28:00,84.4,78.0,30.19,SSW,205,9.0,10.0,81,0.00,,,0.00,weatherlink.com 1.10,2013-08-11 13:28:00,
2013-08-11 09:42:00,84.4,78.0,30.19,SSW,206,7.0,12.0,80,0.00,,,0.00,weatherlink.com 1.10,2013-08-11 13:42:00,
2013-08-11 09:58:00,85.0,78.0,30.20,SSW,205,7.0,10.0,80,0.00,,,0.00,weatherlink.com 1.10,2013-08-11 13:58:00,
2013-08-11 10:28:00,84.7,78.0,30.19,SSW,205,5.0,12.0,81,0.00,,,0.00,weatherlink.com 1.10,2013-08-11 14:28:00,
2013-08-11 10:59:00,85.4,78.0,30.18,SSW,205,8.0,13.0,78,0.00,,,0.00,weatherlink.com 1.10,2013-08-11 14:59:00,
2013-08-11 11:14:00,85.2,78.0,30.19,SSW,205,7.0,11.0,79,0.00,,,0.00,weatherlink.com 1.10,2013-08-11 15:14:00,
2013-08-11 11:29:00,85.7,79.0,30.18,SSW,205,6.0,12.0,79,0.00,,,0.00,weatherlink.com 1.10,2013-08-11 15:29:00,
2013-08-11 11:43:00,85.9,78.0,30.19,SSW,205,6.0,12.0,77,0.00,,,0.00,weatherlink.com 1.10,2013-08-11 15:43:00,
2013-08-11 11:59:00,85.6,79.0,30.19,SSW,205,6.0,14.0,80,0.00,,,0.00,weatherlink.com 1.10,2013-08-11 15:59:00,
2013-08-11 12:15:00,85.7,79.0,30.19,SSW,205,8.0,11.0,80,0.00,,,0.00,weatherlink.com 1.10,2013-08-11 16:15:00,
2013-08-11 12:29:00,85.8,79.0,30.19,SSW,205,6.0,11.0,79,0.00,,,0.00,weatherlink.com 1.10,2013-08-11 16:29:00,
2013-08-11 12:44:00,86.1,79.0,30.19,SSW,205,7.0,9.0,78,0.00,,,0.00,weatherlink.com 1.10,2013-08-11 16:44:00,
2013-08-11 13:30:00,86.6,78.0,30.18,SSW,205,7.0,13.0,75,0.00,,,0.00,weatherlink.com 1.10,2013-08-11 17:30:00,
2013-08-11 13:45:00,86.1,78.0,30.19,SSW,205,5.0,11.0,77,0.00,,,0.00,weatherlink.com 1.10,2013-08-11 17:45:00,
2013-08-11 13:59:00,85.8,78.0,30.18,SSW,205,4.0,10.0,77,0.00,,,0.00,weatherlink.com 1.10,2013-08-11 17:59:00,
2013-08-11 14:15:00,85.5,78.0,30.18,SSW,205,5.0,11.0,77,0.00,,,0.00,weatherlink.com 1.10,2013-08-11 18:15:00,
2013-08-11 15:00:00,85.8,77.0,30.17,SSW,205,5.0,11.0,76,0.00,,,0.00,weatherlink.com 1.10,2013-08-11 19:00:00,
2013-08-11 15:16:00,85.5,77.0,30.16,SSW,205,6.0,11.0,75,0.00,,,0.00,weatherlink.com 1.10,2013-08-11 19:16:00,
2013-08-11 15:30:00,85.7,77.0,30.16,SSW,205,9.0,11.0,76,0.00,,,0.00,weatherlink.com 1.10,2013-08-11 19:30:00,
2013-08-11 16:01:00,85.9,78.0,30.15,SSW,205,5.0,12.0,76,0.00,,,0.00,weatherlink.com 1.10,2013-08-11 20:01:00,
2013-08-11 16:17:00,85.7,77.0,30.15,SSW,205,4.0,11.0,75,0.00,,,0.00,weatherlink.com 1.10,2013-08-11 20:17:00,
2013-08-11 16:30:00,85.8,77.0,30.15,SSW,205,9.0,11.0,75,0.00,,,0.00,weatherlink.com 1.10,2013-08-11 20:30:00,
2013-08-11 16:46:00,85.2,76.0,30.14,SSW,205,7.0,12.0,74,0.00,,,0.00,weatherlink.com 1.10,2013-08-11 20:46:00,
2013-08-11 17:02:00,85.4,77.0,30.14,SSW,205,6.0,10.0,76,0.00,,,0.00,weatherlink.com 1.10,2013-08-11 21:02:00,
2013-08-11 17:16:00,85.3,77.0,30.13,SSW,205,11.0,11.0,77,0.00,,,0.00,weatherlink.com 1.10,2013-08-11 21:16:00,
2013-08-11 17:32:00,84.7,77.0,30.14,SSW,205,4.0,14.0,77,0.00,,,0.00,weatherlink.com 1.10,2013-08-11 21:32:00,
2013-08-11 17:46:00,85.0,77.0,30.14,SSW,206,4.0,10.0,76,0.00,,,0.00,weatherlink.com 1.10,2013-08-11 21:46:00,
2013-08-11 18:17:00,84.8,78.0,30.13,SSW,205,3.0,10.0,79,0.00,,,0.00,weatherlink.com 1.10,2013-08-11 22:17:00,
2013-08-11 18:48:00,84.4,77.0,30.13,SSW,205,5.0,11.0,77,0.00,,,0.00,weatherlink.com 1.10,2013-08-11 22:48:00,
2013-08-11 19:02:00,84.1,77.0,30.13,SSW,205,5.0,9.0,78,0.00,,,0.00,weatherlink.com 1.10,2013-08-11 23:02:00,
2013-08-11 19:32:00,83.8,77.0,30.13,SSW,205,5.0,8.0,79,0.00,,,0.00,weatherlink.com 1.10,2013-08-11 23:32:00,
2013-08-11 19:48:00,83.5,76.0,30.13,SSW,205,4.0,7.0,79,0.00,,,0.00,weatherlink.com 1.10,2013-08-11 23:48:00,
2013-08-11 20:02:00,83.2,76.0,30.13,SSW,205,5.0,9.0,80,0.00,,,0.00,weatherlink.com 1.10,2013-08-12 00:02:00,
2013-08-11 20:32:00,82.9,77.0,30.14,SSW,205,3.0,8.0,81,0.00,,,0.00,weatherlink.com 1.10,2013-08-12 00:32:00,
2013-08-11 20:48:00,82.9,76.0,30.14,SSW,206,3.0,9.0,80,0.00,,,0.00,weatherlink.com 1.10,2013-08-12 00:48:00,
2013-08-11 21:03:00,82.9,77.0,30.14,SSW,205,4.0,8.0,81,0.00,,,0.00,weatherlink.com 1.10,2013-08-12 01:03:00,
2013-08-11 21:17:00,83.0,77.0,30.14,SSW,205,3.0,8.0,81,0.00,,,0.00,weatherlink.com 1.10,2013-08-12 01:17:00,
2013-08-11 21:33:00,83.0,77.0,30.15,SSW,205,5.0,7.0,81,0.00,,,0.00,weatherlink.com 1.10,2013-08-12 01:33:00,
2013-08-11 22:02:00,82.7,76.0,30.17,SSW,206,1.0,7.0,81,0.00,,,0.00,weatherlink.com 1.10,2013-08-12 02:02:00,
2013-08-11 22:33:00,82.7,76.0,30.17,SSW,206,5.0,7.0,81,0.00,,,0.00,weatherlink.com 1.10,2013-08-12 02:33:00,
2013-08-11 22:49:00,82.7,76.0,30.16,SSW,206,2.0,6.0,81,0.00,,,0.00,weatherlink.com 1.10,2013-08-12 02:49:00,
2013-08-11 23:04:00,82.5,76.0,30.17,SSW,205,2.0,6.0,80,0.00,,,0.00,weatherlink.com 1.10,2013-08-12 03:04:00,
2013-08-11 23:18:00,82.6,76.0,30.17,SSW,205,4.0,9.0,79,0.00,,,0.00,weatherlink.com 1.10,2013-08-12 03:18:00,
2013-08-11 23:34:00,82.6,76.0,30.17,SSW,206,4.0,6.0,80,0.00,,,0.00,weatherlink.com 1.10,2013-08-12 03:34:00,
2013-08-11 23:49:00,82.5,75.0,30.17,SSW,205,3.0,6.0,79,0.00,,,0.00,weatherlink.com 1.10,2013-08-12 03:49:00,